Year,Month,Day,Hour,Minute,Value (Times are PST for windgust in km/hr)
2016,08,23,01,01,1.60
2016,08,23,02,27,3.20
2016,08,23,02,28,3.20
2016,08,23,02,32,1.60
2016,08,23,02,33,3.20
2016,08,23,02,55,4.80
2016,08,23,02,56,3.20
2016,08,23,02,57,1.60
2016,08,23,03,00,3.20
2016,08,23,03,01,3.20
2016,08,23,03,38,3.20
2016,08,23,03,39,1.60
2016,08,23,04,13,3.20
2016,08,23,04,14,3.20
2016,08,23,04,15,3.20
2016,08,23,04,23,1.60
2016,08,23,04,25,1.60
2016,08,23,04,29,1.60
2016,08,23,07,09,1.60
2016,08,23,07,10,1.60
2016,08,23,08,04,4.80
2016,08,23,08,05,4.80
2016,08,23,08,06,4.80
2016,08,23,08,07,6.40
2016,08,23,08,08,6.40
2016,08,23,08,09,6.40
2016,08,23,08,10,6.40
2016,08,23,08,11,6.40
2016,08,23,08,12,6.40
2016,08,23,08,13,4.80
2016,08,23,08,14,4.80
2016,08,23,08,15,3.20
2016,08,23,08,17,3.20
2016,08,23,08,18,3.20
2016,08,23,08,19,4.80
2016,08,23,08,20,6.40
2016,08,23,08,21,4.80
2016,08,23,08,22,4.80
2016,08,23,08,23,6.40
2016,08,23,08,24,6.40
2016,08,23,08,25,4.80
2016,08,23,08,26,6.40
2016,08,23,08,27,4.80
2016,08,23,08,28,4.80
2016,08,23,08,29,4.80
2016,08,23,08,30,4.80
2016,08,23,08,31,4.80
2016,08,23,08,32,4.80
2016,08,23,08,33,6.40
2016,08,23,08,34,8.10
2016,08,23,08,35,6.40
2016,08,23,08,36,6.40
2016,08,23,08,37,4.80
2016,08,23,08,38,3.20
2016,08,23,08,39,1.60
2016,08,23,08,41,8.10
2016,08,23,08,42,6.40
2016,08,23,08,43,4.80
2016,08,23,08,47,1.60
2016,08,23,08,48,1.60
2016,08,23,08,49,6.40
2016,08,23,08,50,4.80
2016,08,23,08,51,6.40
2016,08,23,08,54,3.20
2016,08,23,08,55,4.80
2016,08,23,08,56,4.80
2016,08,23,08,57,4.80
2016,08,23,08,58,3.20
2016,08,23,09,04,1.60
2016,08,23,09,05,1.60
2016,08,23,09,09,4.80
2016,08,23,09,10,3.20
2016,08,23,09,13,1.60
2016,08,23,09,14,6.40
2016,08,23,09,15,4.80
2016,08,23,09,16,3.20
2016,08,23,09,17,8.10
2016,08,23,09,18,3.20
2016,08,23,09,20,1.60
2016,08,23,09,21,3.20
2016,08,23,09,23,3.20
2016,08,23,09,24,1.60
2016,08,23,09,25,8.10
2016,08,23,09,26,3.20
2016,08,23,09,27,12.90
2016,08,23,09,28,17.70
2016,08,23,09,29,16.10
2016,08,23,09,30,14.50
2016,08,23,09,31,8.10
2016,08,23,09,32,8.10
2016,08,23,09,33,9.60
2016,08,23,09,34,11.30
2016,08,23,09,35,14.50
2016,08,23,09,36,14.50
2016,08,23,09,37,16.10
2016,08,23,09,38,14.50
2016,08,23,09,39,17.70
2016,08,23,09,40,11.30
2016,08,23,09,41,11.30
2016,08,23,09,42,6.40
2016,08,23,09,43,1.60
2016,08,23,09,44,16.10
2016,08,23,09,45,9.60
2016,08,23,09,46,1.60
2016,08,23,09,47,4.80
2016,08,23,09,48,6.40
2016,08,23,09,49,3.20
2016,08,23,09,50,9.60
2016,08,23,09,51,8.10
2016,08,23,09,52,6.40
2016,08,23,09,53,6.40
2016,08,23,09,54,6.40
2016,08,23,09,55,19.30
2016,08,23,09,56,17.70
2016,08,23,09,57,14.50
2016,08,23,09,58,1.60
2016,08,23,09,59,9.60
2016,08,23,10,00,11.30
2016,08,23,10,01,8.10
2016,08,23,10,02,9.60
2016,08,23,10,03,6.40
2016,08,23,10,05,3.20
2016,08,23,10,06,4.80
2016,08,23,10,07,9.60
2016,08,23,10,08,9.60
2016,08,23,10,09,6.40
2016,08,23,10,11,1.60
2016,08,23,10,12,8.10
2016,08,23,10,13,3.20
2016,08,23,10,14,1.60
2016,08,23,10,15,6.40
2016,08,23,10,16,8.10
2016,08,23,10,17,8.10
2016,08,23,10,18,11.30
2016,08,23,10,19,6.40
2016,08,23,10,20,8.10
2016,08,23,10,21,6.40
2016,08,23,10,22,3.20
2016,08,23,10,23,4.80
2016,08,23,10,24,1.60
2016,08,23,10,25,11.30
2016,08,23,10,26,11.30
2016,08,23,10,27,9.60
2016,08,23,10,28,4.80
2016,08,23,10,29,1.60
2016,08,23,10,30,3.20
2016,08,23,10,31,3.20
2016,08,23,10,32,8.10
2016,08,23,10,33,8.10
2016,08,23,10,34,3.20
2016,08,23,10,35,8.10
2016,08,23,10,36,8.10
2016,08,23,10,37,3.20
2016,08,23,10,38,6.40
2016,08,23,10,39,9.60
2016,08,23,10,40,8.10
2016,08,23,10,41,9.60
2016,08,23,10,42,8.10
2016,08,23,10,43,9.60
2016,08,23,10,44,9.60
2016,08,23,10,45,14.50
2016,08,23,10,46,14.50
2016,08,23,10,47,14.50
2016,08,23,10,48,11.30
2016,08,23,10,49,8.10
2016,08,23,10,50,9.60
2016,08,23,10,51,4.80
2016,08,23,10,52,4.80
2016,08,23,10,53,6.40
2016,08,23,10,54,8.10
2016,08,23,10,55,4.80
2016,08,23,10,56,8.10
2016,08,23,10,57,4.80
2016,08,23,10,58,8.10
2016,08,23,10,59,8.10
2016,08,23,11,00,8.10
2016,08,23,11,01,8.10
2016,08,23,11,02,8.10
2016,08,23,11,03,16.10
2016,08,23,11,04,11.30
2016,08,23,11,05,11.30
2016,08,23,11,06,11.30
2016,08,23,11,07,8.10
2016,08,23,11,08,6.40
2016,08,23,11,09,8.10
2016,08,23,11,10,6.40
2016,08,23,11,11,8.10
2016,08,23,11,12,9.60
2016,08,23,11,13,11.30
2016,08,23,11,14,11.30
2016,08,23,11,15,8.10
2016,08,23,11,16,6.40
2016,08,23,11,17,9.60
2016,08,23,11,18,9.60
2016,08,23,11,19,9.60
2016,08,23,11,20,11.30
2016,08,23,11,21,9.60
2016,08,23,11,22,8.10
2016,08,23,11,23,8.10
2016,08,23,11,24,9.60
2016,08,23,11,25,8.10
2016,08,23,11,26,8.10
2016,08,23,11,27,8.10
2016,08,23,11,28,9.60
2016,08,23,11,29,9.60
2016,08,23,11,30,9.60
2016,08,23,11,31,9.60
2016,08,23,11,32,12.90
2016,08,23,11,33,9.60
2016,08,23,11,34,14.50
2016,08,23,11,35,9.60
2016,08,23,11,36,11.30
2016,08,23,11,37,9.60
2016,08,23,11,38,6.40
2016,08,23,11,39,8.10
2016,08,23,11,40,8.10
2016,08,23,11,41,12.90
2016,08,23,11,42,11.30
2016,08,23,11,43,9.60
2016,08,23,11,44,8.10
2016,08,23,11,45,14.50
2016,08,23,11,46,14.50
2016,08,23,11,47,14.50
2016,08,23,11,48,11.30
2016,08,23,11,49,11.30
2016,08,23,11,50,12.90
2016,08,23,11,51,14.50
2016,08,23,11,52,6.40
2016,08,23,11,53,14.50
2016,08,23,11,54,11.30
2016,08,23,11,55,11.30
2016,08,23,11,56,16.10
2016,08,23,11,57,16.10
2016,08,23,11,58,17.70
2016,08,23,11,59,14.50
2016,08,23,12,00,14.50
2016,08,23,12,01,16.10
2016,08,23,12,02,8.10
2016,08,23,12,03,9.60
2016,08,23,12,04,14.50
2016,08,23,12,05,16.10
2016,08,23,12,06,16.10
2016,08,23,12,07,9.60
2016,08,23,12,08,11.30
2016,08,23,12,09,9.60
2016,08,23,12,10,9.60
2016,08,23,12,11,16.10
2016,08,23,12,12,8.10
2016,08,23,12,13,11.30
2016,08,23,12,14,11.30
2016,08,23,12,15,11.30
2016,08,23,12,16,11.30
2016,08,23,12,17,14.50
2016,08,23,12,18,9.60
2016,08,23,12,19,9.60
2016,08,23,12,20,14.50
2016,08,23,12,21,16.10
2016,08,23,12,22,8.10
2016,08,23,12,23,8.10
2016,08,23,12,24,11.30
2016,08,23,12,25,11.30
2016,08,23,12,26,14.50
2016,08,23,12,27,11.30
2016,08,23,12,28,9.60
2016,08,23,12,29,6.40
2016,08,23,12,30,12.90
2016,08,23,12,31,11.30
2016,08,23,12,32,8.10
2016,08,23,12,33,11.30
2016,08,23,12,34,8.10
2016,08,23,12,35,11.30
2016,08,23,12,36,9.60
2016,08,23,12,37,11.30
2016,08,23,12,38,11.30
2016,08,23,12,39,11.30
2016,08,23,12,40,11.30
2016,08,23,12,41,9.60
2016,08,23,12,42,9.60
2016,08,23,12,43,11.30
2016,08,23,12,44,8.10
2016,08,23,12,45,9.60
2016,08,23,12,46,11.30
2016,08,23,12,47,9.60
2016,08,23,12,48,11.30
2016,08,23,12,49,14.50
2016,08,23,12,50,11.30
2016,08,23,12,51,16.10
2016,08,23,12,52,14.50
2016,08,23,12,53,14.50
2016,08,23,12,54,14.50
2016,08,23,12,55,14.50
2016,08,23,12,56,9.60
2016,08,23,12,57,8.10
2016,08,23,12,58,8.10
2016,08,23,12,59,11.30
2016,08,23,13,00,11.30
2016,08,23,13,01,11.30
2016,08,23,13,02,8.10
2016,08,23,13,03,14.50
2016,08,23,13,04,14.50
2016,08,23,13,05,8.10
2016,08,23,13,06,9.60
2016,08,23,13,07,11.30
2016,08,23,13,08,11.30
2016,08,23,13,09,11.30
2016,08,23,13,10,9.60
2016,08,23,13,11,11.30
2016,08,23,13,12,16.10
2016,08,23,13,13,16.10
2016,08,23,13,14,12.90
2016,08,23,13,15,16.10
2016,08,23,13,16,12.90
2016,08,23,13,17,14.50
2016,08,23,13,18,16.10
2016,08,23,13,19,11.30
2016,08,23,13,20,8.10
2016,08,23,13,21,14.50
2016,08,23,13,22,12.90
2016,08,23,13,23,14.50
2016,08,23,13,24,11.30
2016,08,23,13,25,8.10
2016,08,23,13,26,11.30
2016,08,23,13,27,8.10
2016,08,23,13,28,9.60
2016,08,23,13,29,8.10
2016,08,23,13,30,4.80
2016,08,23,13,31,8.10
2016,08,23,13,32,11.30
2016,08,23,13,33,16.10
2016,08,23,13,34,11.30
2016,08,23,13,35,9.60
2016,08,23,13,36,9.60
2016,08,23,13,37,11.30
2016,08,23,13,38,11.30
2016,08,23,13,39,11.30
2016,08,23,13,40,9.60
2016,08,23,13,41,11.30
2016,08,23,13,42,14.50
2016,08,23,13,43,9.60
2016,08,23,13,44,16.10
2016,08,23,13,45,12.90
2016,08,23,13,46,16.10
2016,08,23,13,47,16.10
2016,08,23,13,48,16.10
2016,08,23,13,49,9.60
2016,08,23,13,50,11.30
2016,08,23,13,51,9.60
2016,08,23,13,52,9.60
2016,08,23,13,53,14.50
2016,08,23,13,54,14.50
2016,08,23,13,55,9.60
2016,08,23,13,56,11.30
2016,08,23,13,57,11.30
2016,08,23,13,58,14.50
2016,08,23,13,59,11.30
2016,08,23,14,00,11.30
2016,08,23,14,01,9.60
2016,08,23,14,02,8.10
2016,08,23,14,03,8.10
2016,08,23,14,04,9.60
2016,08,23,14,05,11.30
2016,08,23,14,06,8.10
2016,08,23,14,07,9.60
2016,08,23,14,08,9.60
2016,08,23,14,09,8.10
2016,08,23,14,10,8.10
2016,08,23,14,11,9.60
2016,08,23,14,12,9.60
2016,08,23,14,13,8.10
2016,08,23,14,14,8.10
2016,08,23,14,15,8.10
2016,08,23,14,16,6.40
2016,08,23,14,17,14.50
2016,08,23,14,18,9.60
2016,08,23,14,19,8.10
2016,08,23,14,20,8.10
2016,08,23,14,21,8.10
2016,08,23,14,22,8.10
2016,08,23,14,23,6.40
2016,08,23,14,24,8.10
2016,08,23,14,25,6.40
2016,08,23,14,26,6.40
2016,08,23,14,27,4.80
2016,08,23,14,28,4.80
2016,08,23,14,29,6.40
2016,08,23,14,30,8.10
2016,08,23,14,31,9.60
2016,08,23,14,32,9.60
2016,08,23,14,33,9.60
2016,08,23,14,34,8.10
2016,08,23,14,35,8.10
2016,08,23,14,36,6.40
2016,08,23,14,37,4.80
2016,08,23,14,38,9.60
2016,08,23,14,39,8.10
2016,08,23,14,40,6.40
2016,08,23,14,41,8.10
2016,08,23,14,42,8.10
2016,08,23,14,43,6.40
2016,08,23,14,44,8.10
2016,08,23,14,45,6.40
2016,08,23,14,46,9.60
2016,08,23,14,47,8.10
2016,08,23,14,48,8.10
2016,08,23,14,49,8.10
2016,08,23,14,50,9.60
2016,08,23,14,51,8.10
2016,08,23,14,52,12.90
2016,08,23,14,53,14.50
2016,08,23,14,54,11.30
2016,08,23,14,55,11.30
2016,08,23,14,56,9.60
2016,08,23,14,57,6.40
2016,08,23,14,58,9.60
2016,08,23,14,59,6.40
2016,08,23,15,00,8.10
2016,08,23,15,01,9.60
2016,08,23,15,02,8.10
2016,08,23,15,03,4.80
2016,08,23,15,04,11.30
2016,08,23,15,05,9.60
2016,08,23,15,06,11.30
2016,08,23,15,07,9.60
2016,08,23,15,08,8.10
2016,08,23,15,09,9.60
2016,08,23,15,10,11.30
2016,08,23,15,11,11.30
2016,08,23,15,12,11.30
2016,08,23,15,13,11.30
2016,08,23,15,14,9.60
2016,08,23,15,15,6.40
2016,08,23,15,16,9.60
2016,08,23,15,17,9.60
2016,08,23,15,18,8.10
2016,08,23,15,19,11.30
2016,08,23,15,20,8.10
2016,08,23,15,21,6.40
2016,08,23,15,22,6.40
2016,08,23,15,23,9.60
2016,08,23,15,24,9.60
2016,08,23,15,25,11.30
2016,08,23,15,26,8.10
2016,08,23,15,27,6.40
2016,08,23,15,28,6.40
2016,08,23,15,29,9.60
2016,08,23,15,30,8.10
2016,08,23,15,31,9.60
2016,08,23,15,32,9.60
2016,08,23,15,33,11.30
2016,08,23,15,34,11.30
2016,08,23,15,35,8.10
2016,08,23,15,36,8.10
2016,08,23,15,37,6.40
2016,08,23,15,38,9.60
2016,08,23,15,39,11.30
2016,08,23,15,40,11.30
2016,08,23,15,41,9.60
2016,08,23,15,42,6.40
2016,08,23,15,43,9.60
2016,08,23,15,44,9.60
2016,08,23,15,45,8.10
2016,08,23,15,46,9.60
2016,08,23,15,47,9.60
2016,08,23,15,48,14.50
2016,08,23,15,49,9.60
2016,08,23,15,50,9.60
2016,08,23,15,51,12.90
2016,08,23,15,52,9.60
2016,08,23,15,53,12.90
2016,08,23,15,54,9.60
2016,08,23,15,55,11.30
2016,08,23,15,56,14.50
2016,08,23,15,57,9.60
2016,08,23,15,58,12.90
2016,08,23,15,59,16.10
2016,08,23,16,00,11.30
2016,08,23,16,01,11.30
2016,08,23,16,02,9.60
2016,08,23,16,03,9.60
2016,08,23,16,04,9.60
2016,08,23,16,05,9.60
2016,08,23,16,06,14.50
2016,08,23,16,07,16.10
2016,08,23,16,08,11.30
2016,08,23,16,09,9.60
2016,08,23,16,10,11.30
2016,08,23,16,11,11.30
2016,08,23,16,12,16.10
2016,08,23,16,13,8.10
2016,08,23,16,14,16.10
2016,08,23,16,15,14.50
2016,08,23,16,16,16.10
2016,08,23,16,17,12.90
2016,08,23,16,18,8.10
2016,08,23,16,19,9.60
2016,08,23,16,20,12.90
2016,08,23,16,21,16.10
2016,08,23,16,22,14.50
2016,08,23,16,23,14.50
2016,08,23,16,24,11.30
2016,08,23,16,25,6.40
2016,08,23,16,26,6.40
2016,08,23,16,27,9.60
2016,08,23,16,28,11.30
2016,08,23,16,29,12.90
2016,08,23,16,30,9.60
2016,08,23,16,31,9.60
2016,08,23,16,32,12.90
2016,08,23,16,33,9.60
2016,08,23,16,34,8.10
2016,08,23,16,35,11.30
2016,08,23,16,36,9.60
2016,08,23,16,37,17.70
2016,08,23,16,38,14.50
2016,08,23,16,39,14.50
2016,08,23,16,40,12.90
2016,08,23,16,41,8.10
2016,08,23,16,42,8.10
2016,08,23,16,43,6.40
2016,08,23,16,44,9.60
2016,08,23,16,45,6.40
2016,08,23,16,46,9.60
2016,08,23,16,47,9.60
2016,08,23,16,48,9.60
2016,08,23,16,49,6.40
2016,08,23,16,50,6.40
2016,08,23,16,51,8.10
2016,08,23,16,52,6.40
2016,08,23,16,53,6.40
2016,08,23,16,54,6.40
2016,08,23,16,55,6.40
2016,08,23,16,56,9.60
2016,08,23,16,57,8.10
2016,08,23,16,58,8.10
2016,08,23,16,59,9.60
2016,08,23,17,00,11.30
2016,08,23,17,01,9.60
2016,08,23,17,02,8.10
2016,08,23,17,03,9.60
2016,08,23,17,04,9.60
2016,08,23,17,05,11.30
2016,08,23,17,06,8.10
2016,08,23,17,07,9.60
2016,08,23,17,08,9.60
2016,08,23,17,09,6.40
2016,08,23,17,10,9.60
2016,08,23,17,11,9.60
2016,08,23,17,12,6.40
2016,08,23,17,13,8.10
2016,08,23,17,14,4.80
2016,08,23,17,15,6.40
2016,08,23,17,16,9.60
2016,08,23,17,17,9.60
2016,08,23,17,18,11.30
2016,08,23,17,19,9.60
2016,08,23,17,20,11.30
2016,08,23,17,21,11.30
2016,08,23,17,22,9.60
2016,08,23,17,23,11.30
2016,08,23,17,24,11.30
2016,08,23,17,25,11.30
2016,08,23,17,26,11.30
2016,08,23,17,27,11.30
2016,08,23,17,28,11.30
2016,08,23,17,29,12.90
2016,08,23,17,30,9.60
2016,08,23,17,31,12.90
2016,08,23,17,32,11.30
2016,08,23,17,33,9.60
2016,08,23,17,34,6.40
2016,08,23,17,35,8.10
2016,08,23,17,36,9.60
2016,08,23,17,37,8.10
2016,08,23,17,38,14.50
2016,08,23,17,39,4.80
2016,08,23,17,40,9.60
2016,08,23,17,41,12.90
2016,08,23,17,42,11.30
2016,08,23,17,43,6.40
2016,08,23,17,44,11.30
2016,08,23,17,45,11.30
2016,08,23,17,46,9.60
2016,08,23,17,47,9.60
2016,08,23,17,48,11.30
2016,08,23,17,49,4.80
2016,08,23,17,50,4.80
2016,08,23,17,51,1.60
2016,08,23,17,52,11.30
2016,08,23,17,53,11.30
2016,08,23,17,54,3.20
2016,08,23,17,55,11.30
2016,08,23,17,56,11.30
2016,08,23,17,57,8.10
2016,08,23,17,58,9.60
2016,08,23,17,59,8.10
2016,08,23,18,00,6.40
2016,08,23,18,01,3.20
2016,08,23,18,03,8.10
2016,08,23,18,04,6.40
2016,08,23,18,05,6.40
2016,08,23,18,06,6.40
2016,08,23,18,07,8.10
2016,08,23,18,08,4.80
2016,08,23,18,09,1.60
2016,08,23,18,12,4.80
2016,08,23,18,13,4.80
2016,08,23,18,14,4.80
2016,08,23,18,15,6.40
2016,08,23,18,17,3.20
2016,08,23,18,18,6.40
2016,08,23,18,19,4.80
2016,08,23,18,20,4.80
2016,08,23,18,21,4.80
2016,08,23,18,22,1.60
2016,08,23,18,23,1.60
2016,08,23,18,24,1.60
2016,08,23,18,25,4.80
2016,08,23,18,26,4.80
2016,08,23,18,27,1.60
2016,08,23,18,28,4.80
2016,08,23,18,29,1.60
2016,08,23,18,30,8.10
2016,08,23,18,31,3.20
2016,08,23,18,33,1.60
2016,08,23,18,34,4.80
2016,08,23,18,36,1.60
2016,08,23,18,37,1.60
2016,08,23,18,38,4.80
2016,08,23,18,39,4.80
2016,08,23,18,40,6.40
2016,08,23,18,41,8.10
2016,08,23,18,42,4.80
2016,08,23,18,43,6.40
2016,08,23,18,44,6.40
2016,08,23,18,45,4.80
2016,08,23,18,46,3.20
2016,08,23,18,48,1.60
2016,08,23,18,49,1.60
2016,08,23,18,50,1.60
2016,08,23,18,51,1.60
2016,08,23,18,52,1.60
2016,08,23,18,54,1.60
2016,08,23,18,55,1.60
2016,08,23,18,56,1.60
2016,08,23,18,58,3.20
2016,08,23,18,59,4.80
2016,08,23,19,00,1.60
2016,08,23,19,01,3.20
2016,08,23,19,02,3.20
2016,08,23,19,03,1.60
2016,08,23,19,04,1.60
2016,08,23,19,08,3.20
2016,08,23,19,09,1.60
2016,08,23,19,10,1.60
2016,08,23,19,25,1.60
2016,08,23,19,26,1.60
2016,08,23,19,27,1.60
2016,08,23,19,28,1.60
2016,08,23,19,48,1.60
2016,08,23,19,49,3.20
2016,08,23,19,50,1.60
2016,08,23,19,51,4.80
2016,08,23,19,52,4.80
2016,08,23,19,53,4.80
2016,08,23,19,54,8.10
2016,08,23,19,55,9.60
2016,08,23,19,56,8.10
2016,08,23,19,57,6.40
2016,08,23,19,58,4.80
2016,08,23,19,59,8.10
2016,08,23,20,00,4.80
2016,08,23,20,01,3.20
2016,08,23,20,02,6.40
2016,08,23,20,03,4.80
2016,08,23,20,04,4.80
2016,08,23,21,09,1.60
2016,08,23,22,11,3.20
2016,08,23,22,12,4.80
2016,08,23,22,22,1.60
2016,08,23,22,23,3.20
2016,08,23,23,19,3.20
2016,08,23,23,20,3.20
2016,08,23,23,23,3.20
2016,08,23,23,24,1.60
2016,08,23,23,25,6.40
2016,08,23,23,26,4.80
2016,08,23,23,32,1.60
2016,08,23,23,33,4.80
2016,08,23,23,52,1.60
2016,08,23,23,53,4.80
2016,08,23,23,54,3.20
2016,08,23,23,59,11.30
